Content
SEND FEEDBACK

Daily
Averages
Monthly
Summary
Reunion

ST.-DENIS, REUNION


Home > Africa > Reunion
Elevation: 82 feet     Latitude: 20 53S     Longitude: 055 31E

WEATHER
 
SELECT A DAY
Number of Records: 234,709;   Date Range: 7/1/96 - 10/18/14
 
SHARE

PRINT THIS DATA

[ ← Previous Day ]
WEATHER ALMANAC - APRIL 7, 2014
[ Next Day → ]
[ °C ]   °F
Weather ElementAverageHighLow
Temperature76.5 °F84.2 °F (10:30 am)69.8 °F (1:30 am)
Dewpoint66.7 °F72 °F (2:00 pm)59 °F (7:00 am)
Humidity70 %89 % (2:00 pm)45 % (9:00 am)
Barometer29.82 in29.87 in (1:00 am)29.77 in (3:00 pm)
Wind Speed8.3 mph16.1 mph (1:30 pm)
Wind Gust29.9 mph (1:30 pm)
Weather ElementAverage
Visibility8.2 mi
Wind DirectionWSW (239.1 °)

Weather ElementTotal
Precipitation---
Cooling Degree Days12 (Base 65)
Growing Degree Days27 (Base 50)
Averaged from 70 records on April 7, 2014
WEATHER CONDITIONS BREAKOUT
WIND DIRECTION BREAKOUT
WEATHER BY HOUR - APRIL 7, 2014
[ °C ]   °F
Local TimeTemperatureDewpointHumidityBarometerVisibilityWind DirectionWind SpeedGust SpeedPrecipitationEventsConditions
12:00 AM71.6 °F64.4 °F78 %29.86 in6.2 miSouth (170°)8.1 mph
12:30 AM71.6 °F64.4 °F78 %29.86 in6.2 miSouth (180°)6.9 mphPartly Cloudy
1:00 AM71.0 °F63.0 °F70 %29.87 in37.0 miSouth (180°)9.2 mphClear
1:00 AM71.6 °F62.6 °F73 %29.86 in6.2 miSouth (180°)9.2 mph
1:30 AM69.8 °F62.6 °F78 %29.86 in6.2 miSouth (180°)9.2 mphPartly Cloudy
2:00 AM71.0 °F63.0 °F68 %29.85 in37.0 miSouth (180°)9.2 mphClear
2:00 AM69.8 °F62.6 °F78 %29.83 in6.2 miSouth (180°)9.2 mphPartly Cloudy
2:30 AM69.8 °F62.6 °F78 %29.83 in6.2 miSouth (180°)10.4 mph
3:00 AM69.8 °F62.6 °F78 %29.83 in6.2 miSouth (180°)9.2 mph
3:00 AM70.0 °F62.0 °F68 %29.84 in37.0 miSouth (180°)9.2 mphClear
3:30 AM69.8 °F62.6 °F78 %29.83 in6.2 miSouth (180°)8.1 mph
4:00 AM70.0 °F61.0 °F66 %29.83 in6.0 miSouth (190°)8.1 mphScattered Clouds
4:00 AM69.8 °F60.8 °F73 %29.80 in6.2 miSouth (190°)8.1 mph
4:30 AM71.6 °F60.8 °F69 %29.80 in6.2 miSouth (190°)6.9 mph
5:00 AM71.0 °F61.0 °F62 %29.83 in37.0 miSouth (190°)10.4 mphClear
5:00 AM71.6 °F60.8 °F69 %29.83 in6.2 miSouth (190°)10.4 mph
5:30 AM69.8 °F60.8 °F73 %29.80 in6.2 miSouth (190°)9.2 mphPartly Cloudy
6:00 AM71.6 °F60.8 °F69 %29.83 in6.2 miSouth (190°)9.2 mphPartly Cloudy
6:00 AM71.0 °F60.0 °F61 %29.83 in6.0 miSSW (200°)9.2 mphScattered Clouds
7:00 AM72.0 °F60.0 °F56 %29.85 in6.0 miSouth (190°)10.4 mphScattered Clouds
7:00 AM71.6 °F59.0 °F64 %29.83 in6.2 miSouth (190°)10.4 mphPartly Cloudy
7:30 AM73.4 °F60.8 °F65 %29.83 in6.2 miSouth (180°)8.1 mphPartly Cloudy
8:00 AM77.0 °F62.0 °F51 %29.86 in6.0 miSSW (200°)4.6 mphScattered Clouds
8:00 AM77.0 °F62.6 °F61 %29.86 in6.2 miSSW (200°)4.6 mphPartly Cloudy
8:30 AM80.6 °F64.4 °F58 %29.86 in6.2 miWSW (250°)4.6 mphPartly Cloudy
9:00 AM82.4 °F64.4 °F54 %29.86 in6.2 miVariable3.5 mphScattered Clouds
9:00 AM82.0 °F64.0 °F45 %29.87 in6.0 miNW (310°)3.5 mphScattered Clouds
9:30 AM82.4 °F64.4 °F54 %29.86 in6.2 miNW (310°)4.6 mphScattered Clouds
10:00 AM83.0 °F66.0 °F46 %29.87 in6.0 miWest (280°)3.5 mphPartly Cloudy
10:00 AM82.4 °F66.2 °F58 %29.86 in6.2 miWest (280°)3.5 mphScattered Clouds
10:30 AM84.2 °F64.4 °F51 %29.86 in6.2 miWNW (300°)5.8 mphMostly Cloudy
11:00 AM84.0 °F66.0 °F45 %29.87 in6.0 miWest (280°)5.8 mphPartly Cloudy
11:00 AM84.2 °F66.2 °F55 %29.86 in6.2 miWest (280°)5.8 mphMostly Cloudy
11:30 AM84.2 °F66.2 °F55 %29.86 in6.2 miWNW (300°)5.8 mphMostly Cloudy
12:00 PM84.2 °F69.8 °F62 %29.83 in6.2 miNW (310°)8.1 mphMostly Cloudy
12:00 PM84.0 °F69.0 °F52 %29.85 in6.0 miNW (310°)8.1 mphPartly Cloudy
12:30 PM82.4 °F68.0 °F62 %29.83 in6.2 miNW (310°)11.5 mphMostly Cloudy
1:00 PM82.0 °F69.0 °F55 %29.83 in6.0 miWNW (300°)8.1 mphPartly Cloudy
1:00 PM82.4 °F68.0 °F62 %29.83 in6.2 miWNW (300°)8.1 mphMostly Cloudy
1:30 PM82.4 °F69.8 °F66 %29.83 in5.6 miNW (310°)16.1 mph29.9 mphMostly Cloudy
2:00 PM75.0 °F72.0 °F89 %29.81 in4.0 miWest (280°)13.8 mphRainLight Rain Showers
2:00 PM75.2 °F71.6 °F89 %29.80 in3.7 miWest (280°)13.8 mphRainLight Rain Showers
2:30 PM73.4 °F69.8 °F88 %29.80 in2.5 miWSW (240°)13.8 mphRainRain
3:00 PM75.2 °F71.6 °F89 %29.77 in6.2 miWest (280°)10.4 mphMostly Cloudy
3:00 PM75.0 °F72.0 °F86 %29.79 in6.0 miWest (280°)10.4 mphRainLight Rain Showers
3:30 PM78.8 °F71.6 °F78 %29.77 in6.2 miWest (260°)10.4 mphMostly Cloudy
4:00 PM79.0 °F71.0 °F72 %29.77 in6.0 miWest (260°)5.8 mphPartly Cloudy
4:00 PM78.8 °F71.6 °F78 %29.77 in6.2 miWest (260°)5.8 mphMostly Cloudy
4:30 PM78.8 °F71.6 °F78 %29.77 in6.2 miWest (280°)10.4 mphMostly Cloudy
5:00 PM80.0 °F72.0 °F69 %29.78 in6.0 miWest (270°)6.9 mphMostly Cloudy
5:00 PM78.8 °F71.6 °F78 %29.77 in6.2 miWest (270°)6.9 mphMostly Cloudy
5:30 PM78.8 °F71.6 °F78 %29.77 in6.2 miWest (280°)10.4 mphMostly Cloudy
6:00 PM78.8 °F71.6 °F78 %29.77 in6.2 miWSW (250°)6.9 mphMostly Cloudy
6:00 PM79.0 °F71.0 °F70 %29.80 in6.0 miWSW (250°)6.9 mphMostly Cloudy
6:30 PM78.8 °F69.8 °F74 %29.77 in6.2 miWest (260°)6.9 mphMostly Cloudy
7:00 PM78.0 °F71.0 °F74 %29.81 in6.0 miWest (270°)10.4 mphMostly Cloudy
7:00 PM78.8 °F71.6 °F78 %29.80 in6.2 miWest (280°)11.5 mphMostly Cloudy
7:30 PM77.0 °F69.8 °F78 %29.80 in6.2 miWest (270°)10.4 mphMostly Cloudy
8:00 PM78.0 °F69.0 °F68 %29.81 in6.0 miWest (280°)12.7 mphPartly Cloudy
8:00 PM77.0 °F69.8 °F78 %29.80 in6.2 miWest (280°)11.5 mphMostly Cloudy
8:30 PM77.0 °F69.8 °F78 %29.80 in6.2 miWNW (290°)12.7 mphMostly Cloudy
9:00 PM77.0 °F69.8 °F78 %29.80 in6.2 miWest (270°)9.2 mphMostly Cloudy
9:00 PM77.0 °F70.0 °F74 %29.82 in6.0 miWest (270°)10.4 mphPartly Cloudy
9:30 PM77.0 °F71.6 °F83 %29.80 in6.2 miWest (270°)6.9 mphMostly Cloudy
10:00 PM77.0 °F69.0 °F71 %29.82 in6.0 miSW (230°)4.6 mphPartly Cloudy
10:00 PM77.0 °F69.8 °F78 %29.80 in6.2 miSW (230°)4.6 mphMostly Cloudy
10:30 PM75.2 °F68.0 °F78 %29.80 in6.2 miSW (230°)2.3 mphMostly Cloudy
11:00 PM75.0 °F69.0 °F78 %29.83 in37.0 miSW (220°)5.8 mphClear
11:00 PM75.2 °F69.8 °F83 %29.83 in6.2 miWSW (240°)5.8 mphScattered Clouds
11:30 PM75.2 °F69.8 °F83 %29.80 in6.2 miSW (220°)5.8 mph
Hourly data recorded from FMEE, located miles away from St.-Denis, Reunion







STORIES FROM OUR PARTNERS